SCDASCAR

Guest
Details From SCDA - DIEGO ARACENA INTL
To SCAR - CHACALLUTA
Flight Number -
Tags generated
Created
Modified
Stats Distance 132 nm / 244 km
Max Altitude 12,200 ft / 3,719 m
Waypoints 4
Social Downloads 0
Likes 0
Share VATSIM

Download

Looking for another format? Having issues loading an existing format? Contact us
Advertisement - Login to hide

Notes

Basic altitude profile: - Ascent Rate: 2000ft/min - Ascent Speed: 250kts - Cruise Altitude: 20000ft - Cruise Speed: 320kts - Descent Rate: 1500ft/min - Descent Speed: 250kts Options: - Use NATs: yes - Use PACOTS: yes - Use low airways: yes - Use high airways: yes

Route

SCDA CAMAR VW200 ARI SCAR

ID Type Via Altitude Latitude Longitude Leg Dist Tot Dist Heading (true) Name
O SCDA APT - 0 ft / 0 m -20.53523˚ -70.18128˚ - 0 nm - DIEGO ARACENA INTL
CAMAR FIX - 12,200 ft / 3,719 m -19.37444˚ -70.25972˚ 69 nm 69 nm 356° / 356° -
ARI VOR VW200 (AWY-LO) 8,000 ft / 2,438 m -18.36944˚ -70.34639˚ 60 nm 130 nm 355° / 355° ARICA VOR-DME
O SCAR APT - 0 ft / 0 m -18.34853˚ -70.33874˚ 1 nm 131 nm 19° / 19° CHACALLUTA

Altitude Profile

Advertisement - Login to hide

SCDA

Details ICAO SCDA (IQQ)
Name DIEGO ARACENA INTL
Region Chile
Timezone America/Santiago (UTC-4.0)
Stats Elevation 155 ft / 47 m (AMSL)
Location -20.535228° -70.181279°
Runways 1
Magnetic Variation 4.944° W

METAR

SCDA 212000Z 22010KT CAVOK 19/12 Q1014

Decode

TAF

TAF SCDA 211651Z 2118/2218 23010KT CAVOK TX20/2118Z TN17/2210Z BECMG 2122/2200 OVC025 BECMG 2200/2202 20004KT BECMG 2216/2218 23012KT CAVOK

Decode

Departure Runways

ID Width Length Bearing (true) Bearing (mag) Surface Threshold Offset Overrun Length
18 148 ft / 45 m 11,048 ft / 3,368 m 182.87° 187.81° Asphalt 0 ft / 0 m 200 ft / 61 m
36 148 ft / 45 m 11,048 ft / 3,368 m 2.87° 7.81° Asphalt 0 ft / 0 m 590 ft / 180 m

SCAR

Details ICAO SCAR (ARI)
Name CHACALLUTA
Region Chile
Timezone America/Santiago (UTC-4.0)
Stats Elevation 167 ft / 51 m (AMSL)
Location -18.348530° -70.338741°
Runways 1
Magnetic Variation 5.571° W

METAR

SCAR 212000Z 20010KT CAVOK 20/13 Q1013

Decode

TAF

TAF SCAR 211651Z 2118/2218 22010KT CAVOK TX21/2118Z TN17/2210Z BECMG 2122/2200 19004KT BECMG 2200/2202 OVC025 BECMG 2206/2208 30004KT BECMG 2216/2218 22012KT CAVOK

Decode

Destination Runways

ID Width Length Bearing (true) Bearing (mag) Surface Threshold Offset Overrun Length
02 148 ft / 45 m 7,184 ft / 2,190 m 19.17° 24.74° Asphalt 0 ft / 0 m 2,075 ft / 632 m
20 148 ft / 45 m 7,184 ft / 2,190 m 199.17° 204.74° Asphalt 0 ft / 0 m 197 ft / 60 m